Tracking 31027 objects as of 19-Jul-2025
HD Live streaming from Space Station
objects crossing your sky now

STARLINK-11105

Track STARLINK-11105 now!
10-day predictions
STARLINK-11105 is classified as:


NORAD ID: 59758
Int'l Code: 2024-091F
Perigee: 366.1 km
Apogee: 367.5 km
Inclination: 53.2 °
Period: 91.7 minutes
Semi major axis: 6737 km
RCS: Unknown
Launch date: May 14, 2024
Source: United States (US)
Launch site: AIR FORCE WESTERN TEST RANGE (AFWTR)
Your satellite tracking list
DELTA 1 DEB
Track 1 satellite(s)




NASA's NSSDC Master Catalog

Two Line Element Set (TLE):
1 59758U 24091F   25199.64728995 -.00004322  00000-0 -30814-4 0  9999
2 59758  53.1587 280.0780 0001006  98.6184 261.4948 15.69726904 68752
Source of the keplerian elements: AFSPC